DW4063 Weather Reports


time (UTC)temp
C
wind
direction
speed
KPH
gust
KPH
rain 1hr
cm
rain 24hr
cm
rain mn
cm
humidity
%
barometer
mb
20260906134525 21 144 0.0 0.0 0.00 0.00 0.00 93 1020.0
20260906133030 21 132 0.0 0.0 0.00 0.00 0.00 94 1020.2
20260906131526 20 128 0.0 0.0 0.00 0.00 0.00 94 1020.0
20260906130026 20 201 0.0 0.0 0.00 0.00 0.00 94 1020.1
20260906124527 20 201 0.0 0.0 0.00 0.00 0.00 94 1019.8
20260906123030 19 201 0.0 0.0 0.00 0.00 0.00 94 1020.0
20260906121534 18 201 0.0 0.0 0.00 0.00 0.00 94 1019.6
20260906120023 18 201 0.0 0.0 0.00 0.00 0.00 94 1019.4
20260906114532 18 201 0.0 0.0 0.00 0.00 0.00 94 1019.2
20260906113027 18 201 0.0 0.0 0.00 0.00 0.00 94 1018.8
20260906111530 18 201 0.0 0.0 0.00 0.00 0.00 94 1018.6
20260906110027 18 201 0.0 0.0 0.00 0.00 0.00 94 1018.7
20260906104531 18 201 0.0 0.0 0.00 0.00 0.00 94 1018.5
20260906103026 18 201 0.0 0.0 0.00 0.00 0.00 93 1018.3
20260906101534 19 201 0.0 0.0 0.00 0.00 0.00 93 1018.2
20260906100034 19 201 0.0 0.0 0.00 0.00 0.00 93 1018.2
20260906094532 19 201 0.0 0.0 0.00 0.00 0.00 93 1018.0
20260906093029 19 201 0.0 0.0 0.00 0.00 0.00 93 1018.1
20260906091532 19 201 0.0 0.0 0.00 0.00 0.00 93 1018.0
20260906090029 19 201 0.0 0.0 0.00 0.00 0.00 93 1018.0
20260906084532 19 201 0.0 0.0 0.00 0.00 0.00 92 1017.9
20260906083039 20 201 0.0 0.0 0.00 0.03 0.00 92 1017.9
20260906081520 20 201 0.0 0.0 0.00 0.03 0.00 92 1017.9
20260906080016 20 201 0.0 0.0 0.00 0.03 0.00 92 1018.1
20260906074530 20 201 0.0 0.0 0.00 0.03 0.00 92 1018.1
20260906073027 20 201 0.0 0.0 0.00 0.03 0.00 92 1018.1
20260906071528 20 201 0.0 0.0 0.00 0.03 0.00 91 1018.2
20260906070023 20 201 0.0 0.0 0.00 0.03 0.00 91 1018.3
20260906064515 20 201 0.0 0.0 0.00 0.03 0.00 91 1018.2
20260906063015 21 201 0.0 0.0 0.00 0.03 0.00 90 1018.1
20260906061531 21 201 0.0 0.0 0.00 0.03 0.00 90 1018.1
20260906060027 21 201 0.0 0.0 0.00 0.03 0.00 90 1018.1
20260906054529 21 150 0.0 0.0 0.00 0.03 0.00 89 1018.0
20260906053025 21 150 0.0 0.0 0.00 0.03 0.00 89 1018.0
20260906051520 21 135 0.0 0.0 0.00 0.03 0.00 89 1017.9
20260906050017 21 135 0.0 0.0 0.00 0.03 0.00 89 1017.9
20260906044528 21 135 0.0 0.0 0.00 0.03 0.03 89 1017.8
20260906043033 21 135 0.0 1.6 0.00 0.03 0.03 88 1017.6
20260906041534 21 135 0.0 3.2 0.00 0.03 0.03 88 1017.3
20260906040028 22 246 0.0 1.6 0.00 0.03 0.03 87 1017.0
20260906034534 22 314 0.0 3.2 0.00 0.03 0.03 87 1017.0
20260906033020 22 240 0.0 1.6 0.00 0.03 0.03 86 1016.8
20260906031535 22 103 0.0 3.2 0.00 0.03 0.03 86 1017.0
20260906030029 22 120 0.0 4.8 0.00 0.03 0.03 86 1016.9
20260906024531 22 136 0.0 3.2 0.00 0.03 0.03 86 1017.0
20260906023032 22 115 1.6 4.8 0.00 0.03 0.03 86 1017.1
20260906021536 22 113 1.6 6.4 0.00 0.03 0.03 86 1016.9
20260906020036 22 101 0.0 6.4 0.00 0.03 0.03 86 1016.9
20260906014532 22 91 0.0 6.4 0.00 0.03 0.03 86 1017.0
20260906013034 22 116 0.0 4.8 0.00 0.03 0.03 86 1017.1
20260906011535 22 123 0.0 4.8 0.00 0.03 0.03 86 1017.1
20260906010030 22 5 0.0 4.8 0.00 0.03 0.03 86 1017.0
20260906004530 22 122 0.0 4.8 0.00 0.03 0.03 85 1016.8
20260906003035 22 236 0.0 4.8 0.00 0.03 0.03 85 1016.5
20260906001548 22 88 0.0 4.8 0.00 0.03 0.03 85 1016.4
20260906000035 23 98 0.0 4.8 0.00 0.03 0.03 83 1016.2
20260905234533 23 35 0.0 3.2 0.00 0.03 0.03 82 1016.2
20260905233032 24 79 0.0 4.8 0.00 0.03 0.03 82 1016.1
20260905231512 25 71 0.0 4.8 0.00 0.03 0.03 80 1016.0
20260905230006 25 93 0.0 6.4 0.00 0.03 0.03 78 1015.8
20260905224525 26 55 0.0 6.4 0.00 0.03 0.03 76 1015.5
20260905223033 27 92 1.6 6.4 0.00 0.03 0.03 74 1015.4
20260905221521 27 75 0.0 3.2 0.00 0.03 0.03 73 1015.2
20260905220010 28 150 0.0 3.2 0.00 0.03 0.03 74 1015.4
20260905214511 28 184 0.0 3.2 0.00 0.03 0.03 74 1015.4
20260905213006 28 69 0.0 4.8 0.00 0.03 0.03 73 1015.4
20260905211528 27 205 0.0 1.6 0.00 0.03 0.03 77 1015.4
20260905210032 27 104 0.0 3.2 0.00 0.03 0.03 76 1015.5
20260905204519 27 215 0.0 1.6 0.00 0.03 0.03 79 1015.6
20260905203016 26 113 0.0 3.2 0.00 0.03 0.03 82 1015.8
20260905201517 26 162 0.0 3.2 0.00 0.03 0.03 80 1015.8
20260905200008 26 155 0.0 3.2 0.00 0.03 0.03 81 1015.9
20260905194532 26 132 0.0 3.2 0.00 0.03 0.03 79 1015.8
20260905193030 26 138 0.0 3.2 0.00 0.03 0.03 78 1015.8
20260905191522 27 259 0.0 4.8 0.00 0.03 0.03 78 1016.0
20260905190017 27 108 0.0 3.2 0.00 0.03 0.03 76 1016.0
20260905184529 27 209 0.0 4.8 0.00 0.03 0.03 76 1015.9
20260905183039 27 297 0.0 4.8 0.00 0.03 0.03 77 1016.0
20260905181538 27 171 0.0 3.2 0.00 0.03 0.03 77 1016.0
20260905180037 27 69 0.0 4.8 0.00 0.03 0.03 77 1015.9
20260905174523 27 118 0.0 3.2 0.00 0.03 0.03 78 1015.8
20260905173029 27 97 0.0 4.8 0.00 0.03 0.03 78 1015.8
20260905171516 27 26 1.6 4.8 0.00 0.03 0.03 80 1015.8
20260905170035 27 92 0.0 3.2 0.00 0.03 0.03 80 1016.0
20260905164533 27 188 0.0 3.2 0.00 0.03 0.03 80 1016.1
20260905163031 27 225 0.0 4.8 0.00 0.03 0.03 81 1016.1
20260905161525 26 211 0.0 4.8 0.00 0.03 0.03 82 1016.0
20260905160023 26 94 1.6 3.2 0.00 0.03 0.03 83 1016.0
20260905154520 26 88 1.6 4.8 0.00 0.03 0.03 85 1015.9
20260905153037 25 123 0.0 4.8 0.00 0.03 0.03 86 1015.9
20260905151532 25 126 0.0 8.0 0.00 0.03 0.03 87 1015.6
20260905150032 25 101 0.0 4.8 0.00 0.03 0.03 89 1015.5
20260905144528 24 54 0.0 6.4 0.00 0.03 0.03 91 1015.3
20260905143033 23 153 0.0 4.8 0.00 0.03 0.03 93 1015.3
20260905141520 23 215 0.0 3.2 0.00 0.03 0.03 93 1015.3
20260905140035 23 148 0.0 1.6 0.00 0.03 0.03 94 1015.1